EW0125 Weather Reports


Display with metric or nautical units.
time (UTC)temp
F
wind
direction
speed
MPH
gust
MPH
rain 1hr
in
rain 24hr
in
rain mn
in
humidity
%
barometer
mb
20260506005551 73 192 1.0 10.0 0.00 0.00 0.00 51 1012.3
20260506005053 73 194 1.0 8.0 0.00 0.00 0.00 50 1012.3
20260506004556 74 192 3.0 9.0 0.00 0.00 0.00 50 1012.2
20260506004053 74 202 3.0 9.0 0.00 0.00 0.00 50 1012.2
20260506003554 74 0 2.0 7.0 0.00 0.00 0.00 49 1012.2
20260506003058 74 148 2.0 6.0 0.00 0.00 0.00 49 1012.2
20260506002553 74 199 1.0 11.0 0.00 0.00 0.00 48 1012.2
20260506002051 75 186 1.0 11.0 0.00 0.00 0.00 48 1012.1
20260506001607 75 158 1.0 5.0 0.00 0.00 0.00 47 1012.2
20260506001052 75 198 1.0 5.0 0.00 0.00 0.00 46 1012.1
20260506000555 76 190 1.0 5.0 0.00 0.00 0.00 46 1012.1
20260506000123 76 0 2.0 8.0 0.00 0.00 0.00 45 1012.1
20260505235552 76 190 1.0 8.0 0.00 0.00 0.00 45 1012.1
20260505235051 77 190 2.0 10.0 0.00 0.00 0.00 45 1012.1
20260505234610 77 0 2.0 10.0 0.00 0.00 0.00 44 1012.0
20260505234055 77 209 2.0 12.0 0.00 0.00 0.00 44 1011.9
20260505233553 77 201 3.0 12.0 0.00 0.00 0.00 44 1011.9
20260505233100 77 173 2.0 12.0 0.00 0.00 0.00 44 1012.0
20260505232553 77 156 3.0 10.0 0.00 0.00 0.00 44 1012.0
20260505232051 77 194 2.0 9.0 0.00 0.00 0.00 43 1011.9
20260505231601 77 169 3.0 10.0 0.00 0.00 0.00 43 1011.9
20260505231051 78 248 3.0 11.0 0.00 0.00 0.00 43 1012.0
20260505230553 78 244 4.0 11.0 0.00 0.00 0.00 43 1012.1
20260505230100 78 192 3.0 10.0 0.00 0.00 0.00 42 1011.9
20260505225554 78 194 2.0 10.0 0.00 0.00 0.00 42 1011.9
20260505225053 78 202 3.0 10.0 0.00 0.00 0.00 42 1012.0
20260505224601 79 198 2.0 10.0 0.00 0.00 0.00 41 1012.0
20260505224054 79 172 3.0 13.0 0.00 0.00 0.00 41 1011.9
20260505223551 79 196 2.0 13.0 0.00 0.00 0.00 41 1011.9
20260505223104 80 205 2.0 17.0 0.00 0.00 0.00 40 1012.0
20260505222556 80 202 4.0 17.0 0.00 0.00 0.00 40 1011.9
20260505222052 80 223 4.0 17.0 0.00 0.00 0.00 40 1011.8
20260505221601 81 188 2.0 16.0 0.00 0.00 0.00 39 1011.7
20260505221053 81 182 4.0 16.0 0.00 0.00 0.00 39 1011.7
20260505220555 81 169 2.0 15.0 0.00 0.00 0.00 40 1011.7
20260505220108 81 168 3.0 16.0 0.00 0.00 0.00 39 1011.5
20260505215555 81 181 5.0 16.0 0.00 0.00 0.00 39 1011.7
20260505215054 81 196 2.0 17.0 0.00 0.00 0.00 39 1011.5
20260505214605 81 197 4.0 19.0 0.00 0.00 0.00 39 1011.6
20260505214056 81 229 3.0 20.0 0.00 0.00 0.00 38 1011.5
20260505213555 81 192 5.0 20.0 0.00 0.00 0.00 38 1011.5
20260505213056 81 155 4.0 14.0 0.00 0.00 0.00 37 1011.6
20260505212553 81 219 2.0 12.0 0.00 0.00 0.00 37 1011.6
20260505212053 81 213 4.0 12.0 0.00 0.00 0.00 37 1011.8
20260505211634 81 195 3.0 18.0 0.00 0.00 0.00 36 1011.6
20260505211054 81 223 5.0 18.0 0.00 0.00 0.00 36 1011.8
20260505210554 82 196 4.0 15.0 0.00 0.00 0.00 35 1011.6
20260505210056 82 167 5.0 15.0 0.00 0.00 0.00 35 1011.6
20260505205554 83 224 5.0 15.0 0.00 0.00 0.00 35 1011.5
20260505205055 83 201 2.0 17.0 0.00 0.00 0.00 34 1011.5
20260505204603 83 226 5.0 17.0 0.00 0.00 0.00 34 1011.3
20260505204055 84 198 2.0 15.0 0.00 0.00 0.00 34 1011.3
20260505203554 84 198 6.0 15.0 0.00 0.00 0.00 34 1011.2
20260505203055 84 185 4.0 18.0 0.00 0.00 0.00 34 1011.3
20260505202554 84 196 3.0 18.0 0.00 0.00 0.00 33 1011.4
20260505202054 84 177 3.0 15.0 0.00 0.00 0.00 33 1011.5
20260505201555 84 191 3.0 15.0 0.00 0.00 0.00 32 1011.5
20260505201054 85 289 5.0 15.0 0.00 0.00 0.00 32 1011.6
20260505200554 85 190 4.0 16.0 0.00 0.00 0.00 32 1011.5
20260505200055 85 182 5.0 16.0 0.00 0.00 0.00 32 1011.7
20260505195555 85 250 4.0 17.0 0.00 0.00 0.00 31 1011.6
20260505195055 85 182 4.0 17.0 0.00 0.00 0.00 32 1011.8
20260505194557 85 184 4.0 12.0 0.00 0.00 0.00 32 1012.0
20260505194053 86 202 4.0 13.0 0.00 0.00 0.00 32 1011.8
20260505193554 86 171 6.0 19.0 0.00 0.00 0.00 33 1011.9
20260505193053 86 191 5.0 19.0 0.00 0.00 0.00 32 1011.9
20260505192554 86 209 4.0 11.0 0.00 0.00 0.00 32 1012.0
20260505192054 86 198 3.0 11.0 0.00 0.00 0.00 32 1012.2
20260505191600 86 183 4.0 11.0 0.00 0.00 0.00 32 1012.2
20260505191057 86 180 3.0 12.0 0.00 0.00 0.00 32 1012.4
20260505190556 86 188 4.0 21.0 0.00 0.00 0.00 32 1012.3
20260505190109 86 205 5.0 21.0 0.00 0.00 0.00 32 1012.6
20260505185554 86 296 3.0 12.0 0.00 0.00 0.00 33 1012.8
20260505185055 86 198 2.0 9.0 0.00 0.00 0.00 34 1012.8
20260505184554 85 155 3.0 10.0 0.00 0.00 0.00 34 1012.9
20260505184054 85 269 4.0 10.0 0.00 0.00 0.00 34 1012.9
20260505183554 85 148 2.0 11.0 0.00 0.00 0.00 34 1012.9
20260505183054 85 222 3.0 11.0 0.00 0.00 0.00 34 1013.0
20260505182553 85 167 4.0 11.0 0.00 0.00 0.00 35 1013.1
20260505182053 85 198 4.0 11.0 0.00 0.00 0.00 34 1013.2
20260505181638 85 176 4.0 11.0 0.00 0.00 0.00 35 1013.3
20260505181055 84 177 3.0 12.0 0.00 0.00 0.00 34 1013.4
20260505180553 84 160 5.0 13.0 0.00 0.00 0.00 34 1013.4
20260505180105 84 304 6.0 16.0 0.00 0.00 0.00 35 1013.6
20260505175553 84 157 5.0 16.0 0.00 0.00 0.00 34 1013.5
20260505175055 84 178 3.0 12.0 0.00 0.00 0.00 36 1013.6
20260505174556 84 182 4.0 12.0 0.00 0.00 0.00 37 1013.5
20260505174053 84 281 3.0 12.0 0.00 0.00 0.00 37 1013.6
20260505173552 84 290 1.0 9.0 0.00 0.00 0.00 38 1013.6
20260505173056 83 219 2.0 11.0 0.00 0.00 0.00 39 1013.5
20260505172552 83 250 4.0 11.0 0.00 0.00 0.00 38 1013.7
20260505172053 83 288 5.0 15.0 0.00 0.00 0.00 39 1013.7
20260505171603 82 180 3.0 16.0 0.00 0.00 0.00 39 1013.8
20260505171053 82 216 4.0 16.0 0.00 0.00 0.00 39 1013.7
20260505170553 82 190 3.0 11.0 0.00 0.00 0.00 41 1013.7
20260505170055 82 172 5.0 11.0 0.00 0.00 0.00 43 1013.6
20260505165552 82 193 2.0 10.0 0.00 0.00 0.00 44 1013.9
20260505165052 82 196 5.0 13.0 0.00 0.00 0.00 44 1014.0
20260505164555 81 226 2.0 13.0 0.00 0.00 0.00 45 1014.0
20260505164052 81 191 3.0 10.0 0.00 0.00 0.00 47 1014.1
20260505163555 81 182 1.0 11.0 0.00 0.00 0.00 47 1014.1
20260505163057 81 188 3.0 11.0 0.00 0.00 0.00 48 1014.1
20260505162553 80 165 4.0 9.0 0.00 0.00 0.00 47 1014.3
20260505162052 80 186 2.0 10.0 0.00 0.00 0.00 48 1014.5
20260505161555 80 186 3.0 11.0 0.00 0.00 0.00 49 1014.5
20260505161053 80 200 2.0 12.0 0.00 0.00 0.00 49 1014.6
20260505160553 79 163 3.0 12.0 0.00 0.00 0.00 50 1014.7
20260505153059 78 196 2.0 11.0 0.00 0.00 0.00 54 1014.9
20260505152552 77 143 4.0 11.0 0.00 0.00 0.00 54 1014.9
20260505152053 77 205 3.0 11.0 0.00 0.00 0.00 53 1015.0
20260505151559 77 194 3.0 8.0 0.00 0.00 0.00 54 1015.0
20260505151057 77 184 2.0 8.0 0.00 0.00 0.00 54 1014.9
20260505150552 77 163 2.0 9.0 0.00 0.00 0.00 56 1014.9
20260505140552 72 261 2.0 11.0 0.00 0.00 0.00 62 1015.0
20260505124554 66 198 1.0 9.0 0.00 0.00 0.00 70 1015.1
20260505124054 66 222 2.0 7.0 0.00 0.00 0.00 70 1015.0
20260505123552 65 254 1.0 7.0 0.00 0.00 0.00 71 1015.1
20260505123101 65 192 3.0 7.0 0.00 0.00 0.00 71 1015.0
20260505122552 64 185 1.0 7.0 0.00 0.00 0.00 72 1015.0
20260505122053 64 221 2.0 8.0 0.00 0.00 0.00 72 1014.9
20260505121555 64 188 3.0 8.0 0.00 0.00 0.00 73 1014.8
20260505121052 63 203 1.0 5.0 0.00 0.00 0.00 73 1014.9
20260505120554 63 257 1.0 6.0 0.00 0.00 0.00 74 1014.7
20260505120117 62 193 2.0 6.0 0.00 0.00 0.00 75 1014.5
20260505115551 62 0 1.0 6.0 0.00 0.00 0.00 75 1014.6
20260505115049 61 189 2.0 5.0 0.00 0.00 0.00 76 1014.6
20260505114555 61 180 2.0 6.0 0.00 0.00 0.00 77 1014.5
20260505114049 60 187 1.0 6.0 0.00 0.00 0.00 77 1014.5
20260505113555 60 187 1.0 6.0 0.00 0.00 0.00 77 1014.5
20260505113056 60 173 2.0 6.0 0.00 0.00 0.00 78 1014.5
20260505112552 59 163 0.0 6.0 0.00 0.00 0.00 79 1014.4
20260505112052 58 184 1.0 5.0 0.00 0.00 0.00 79 1014.4
20260505111557 58 190 1.0 3.0 0.00 0.00 0.00 80 1014.6
20260505111052 57 190 0.0 2.0 0.00 0.00 0.00 80 1014.5
20260505110555 56 0 0.0 2.0 0.00 0.00 0.00 80 1014.3
20260505110109 56 0 0.0 2.0 0.00 0.00 0.00 80 1014.4
20260505102050 55 0 0.0 1.0 0.00 0.00 0.00 77 1014.1
20260505101551 55 190 0.0 1.0 0.00 0.00 0.00 77 1014.0
20260505101053 55 0 0.0 1.0 0.00 0.00 0.00 77 1014.1
20260505100553 55 0 0.0 1.0 0.00 0.00 0.00 77 1014.0
20260505095553 56 0 0.0 1.0 0.00 0.00 0.00 76 1014.1
20260505095053 56 0 0.0 1.0 0.00 0.00 0.00 76 1014.0
20260505094557 56 0 0.0 2.0 0.00 0.00 0.00 76 1014.0
20260505094054 56 0 0.0 2.0 0.00 0.00 0.00 75 1014.0
20260505093552 56 190 0.0 1.0 0.00 0.00 0.00 75 1013.9
20260505093056 57 0 0.0 2.0 0.00 0.00 0.00 75 1013.9
20260505092553 57 0 0.0 2.0 0.00 0.00 0.00 75 1013.9
20260505092053 57 0 0.0 2.0 0.00 0.00 0.00 75 1013.9
20260505091600 57 0 0.0 1.0 0.00 0.00 0.00 75 1013.8
20260505091052 57 0 0.0 3.0 0.00 0.00 0.00 75 1013.8
20260505090553 58 0 0.0 3.0 0.00 0.00 0.00 74 1013.8
20260505090057 58 190 0.0 3.0 0.00 0.00 0.00 74 1013.8
20260505085553 58 0 0.0 2.0 0.00 0.00 0.00 74 1013.8
20260505085053 58 0 0.0 2.0 0.00 0.00 0.00 74 1013.8
20260505084604 58 0 0.0 2.0 0.00 0.00 0.00 74 1013.8
20260505084056 58 0 0.0 2.0 0.00 0.00 0.00 73 1013.7
20260505083552 59 190 0.0 2.0 0.00 0.00 0.00 73 1013.8
20260505083108 59 0 0.0 2.0 0.00 0.00 0.00 73 1013.7
20260505082556 59 0 0.0 3.0 0.00 0.00 0.00 72 1013.8
20260505082053 59 190 0.0 3.0 0.00 0.00 0.00 73 1013.8
20260505081600 59 0 0.0 4.0 0.00 0.00 0.00 72 1013.8
20260505081053 59 189 0.0 4.0 0.00 0.00 0.00 72 1013.8
20260505080553 59 0 0.0 3.0 0.00 0.00 0.00 72 1013.7
20260505080058 60 189 0.0 4.0 0.00 0.00 0.00 72 1013.9
20260505075553 60 190 1.0 4.0 0.00 0.00 0.00 72 1013.8
20260505075055 60 190 0.0 7.0 0.00 0.00 0.00 72 1013.6
20260505074555 60 190 1.0 7.0 0.00 0.00 0.00 72 1013.6
20260505074053 60 198 0.0 6.0 0.00 0.00 0.00 71 1013.6
20260505073552 60 0 0.0 6.0 0.00 0.00 0.00 71 1013.6
20260505073101 60 194 1.0 7.0 0.00 0.00 0.00 71 1013.5
20260505072552 60 0 0.0 7.0 0.00 0.00 0.00 71 1013.5
20260505072052 60 170 0.0 7.0 0.00 0.00 0.00 71 1013.4
20260505071556 60 0 2.0 7.0 0.00 0.00 0.00 71 1013.4
20260505071053 60 200 1.0 7.0 0.00 0.00 0.00 71 1013.4
20260505070553 60 202 2.0 7.0 0.00 0.00 0.00 70 1013.3
20260505070101 60 169 1.0 5.0 0.00 0.00 0.00 70 1013.4
20260505065553 60 0 1.0 5.0 0.00 0.00 0.00 70 1013.5
20260505065053 60 0 0.0 5.0 0.00 0.00 0.00 70 1013.4
20260505064637 60 188 1.0 6.0 0.00 0.00 0.00 69 1013.4
20260505064053 60 0 1.0 6.0 0.00 0.00 0.00 69 1013.3
20260505063553 60 192 0.0 6.0 0.00 0.00 0.00 68 1013.3
20260505063053 61 0 1.0 6.0 0.00 0.00 0.00 68 1013.2
20260505062552 61 183 1.0 6.0 0.00 0.00 0.00 68 1013.2
20260505062053 61 182 1.0 10.0 0.00 0.00 0.00 68 1013.3
20260505061557 61 0 1.0 10.0 0.00 0.00 0.00 68 1013.4
20260505061055 61 0 1.0 7.0 0.00 0.00 0.00 67 1013.4
20260505060553 61 199 1.0 7.0 0.00 0.00 0.00 67 1013.4
20260505060101 61 0 2.0 8.0 0.00 0.00 0.00 67 1013.3
20260505055553 61 190 1.0 8.0 0.00 0.00 0.00 66 1013.3
20260505055053 61 188 1.0 5.0 0.00 0.00 0.00 66 1013.4
20260505054601 61 0 1.0 7.0 0.00 0.00 0.00 66 1013.3
20260505054052 61 183 1.0 7.0 0.00 0.00 0.00 66 1013.3
20260505053552 61 264 2.0 7.0 0.00 0.00 0.00 66 1013.3
20260505053058 62 0 0.0 7.0 0.00 0.00 0.00 65 1013.4
20260505052552 62 186 2.0 7.0 0.00 0.00 0.00 65 1013.3
20260505052052 62 194 2.0 6.0 0.00 0.00 0.00 65 1013.3
20260505051558 62 202 2.0 7.0 0.00 0.00 0.00 64 1013.3
20260505051053 62 192 1.0 7.0 0.00 0.00 0.00 64 1013.4
20260505050553 62 184 0.0 7.0 0.00 0.00 0.00 64 1013.3
20260505041604 62 175 2.0 6.0 0.00 0.00 0.00 61 1013.0
20260505041053 62 174 2.0 7.0 0.00 0.00 0.00 60 1012.9
20260505040553 62 194 1.0 7.0 0.00 0.00 0.00 60 1013.0
20260505040104 62 207 1.0 7.0 0.00 0.00 0.00 60 1013.0
20260505035555 62 188 1.0 6.0 0.00 0.00 0.00 59 1013.0
20260505035052 62 202 1.0 6.0 0.00 0.00 0.00 59 1013.0
20260505034611 62 202 2.0 6.0 0.00 0.00 0.00 59 1012.9
20260505034052 62 188 1.0 5.0 0.00 0.00 0.00 59 1012.9
20260505033553 62 184 1.0 5.0 0.00 0.00 0.00 59 1012.9
20260505033109 62 203 1.0 3.0 0.00 0.00 0.00 59 1012.9
20260505032552 62 205 0.0 2.0 0.00 0.00 0.00 58 1012.9
20260505032052 62 205 0.0 2.0 0.00 0.00 0.00 58 1012.8
20260505031555 62 205 0.0 2.0 0.00 0.00 0.00 58 1012.8
20260505031051 62 205 0.0 2.0 0.00 0.00 0.00 57 1012.8
20260505030556 62 0 0.0 2.0 0.00 0.00 0.00 57 1012.8
20260505030127 62 0 0.0 1.0 0.00 0.00 0.00 57 1012.7
20260505025554 62 0 0.0 3.0 0.00 0.00 0.00 56 1012.8
20260505025053 62 0 0.0 3.0 0.00 0.00 0.00 56 1012.7
20260505024611 63 205 0.0 1.0 0.00 0.00 0.00 56 1012.8
20260505024052 63 0 0.0 2.0 0.00 0.00 0.00 55 1012.8
20260505023552 63 0 0.0 2.0 0.00 0.00 0.00 55 1012.7
20260505023058 63 0 0.0 3.0 0.00 0.00 0.00 54 1012.6
20260505022552 64 0 0.0 3.0 0.00 0.00 0.00 54 1012.6
20260505022052 64 0 0.0 3.0 0.00 0.00 0.00 54 1012.6
20260505021558 64 0 0.0 2.0 0.00 0.00 0.00 54 1012.5
20260505021052 64 0 0.0 1.0 0.00 0.00 0.00 54 1012.6
20260505020552 64 0 0.0 1.0 0.00 0.00 0.00 54 1012.5
20260505020108 64 0 0.0 2.0 0.00 0.00 0.00 53 1012.6
20260505015553 65 0 0.0 2.0 0.00 0.00 0.00 53 1012.5
20260505015057 65 205 0.0 0.0 0.00 0.00 0.00 53 1012.4
20260505014557 65 0 0.0 2.0 0.00 0.00 0.00 53 1012.4
20260505014052 65 0 0.0 2.0 0.00 0.00 0.00 53 1012.4
20260505013552 65 205 0.0 2.0 0.00 0.00 0.00 52 1012.4
20260505013058 65 205 0.0 2.0 0.00 0.00 0.00 52 1012.4
20260505012553 65 0 0.0 1.0 0.00 0.00 0.00 52 1012.4
20260505012052 65 0 0.0 1.0 0.00 0.00 0.00 52 1012.2
20260505011601 65 205 0.0 1.0 0.00 0.00 0.00 51 1012.3
20260505011053 65 205 0.0 1.0 0.00 0.00 0.00 50 1012.1
20260505010550 66 0 0.0 0.0 0.00 0.00 0.00 50 1012.1
20260505010111 66 0 0.0 0.0 0.00 0.00 0.00 50 1012.0